軌道要素
Epoch 2009 Mar. 30.0 TT = JDT 2454920.5
T 2009 Mar. 30.45716 TT MPC
q 7.1479027 (2000.0) P Q
z +0.0155588 Peri. 44.45314 -0.22887529 -0.15277440
+/-0.0000000 Node 266.76768 -0.91235009 +0.37806063
e 0.8887871 Incl. 105.65060 +0.33946047 +0.91308824
From 100 observations 2008 June 6-2011 Aug. 19, mean residual 0".5.
|